Location: Crocus Hill
(18.2167°N, 63.0667°W)
Time: 06:16:28
(UTC+00:00)

Cosmos 2360 Rocket - Pass Details

Date: 26 January 2020
Orbit: 834 x 845 km, 71.0° (Epoch: 17 February)

Event Time Altitude Azimuth Distance (km) Brightness Sun altitude
Rises 09:47:30 0° 209° (SSW) 3,387 5.2 -14.2°
Reaches altitude 10° 09:50:01 10° 214° (SW) 2,455 4.4 -13.7°
Maximum altitude 09:55:27 49° 288° (WNW) 1,076 2.4 -12.4°
Drops below altitude 10° 10:00:54 10° 3° (N) 2,461 4.5 -11.2°
Sets 10:03:26 0° 9° (N) 3,396 5.3 -10.6°
